GEFSMA_con_probscp_018.txt.gz
Probability
0 0 0 0 0 0 0 0 0 0 0 0 0 0 0 0 0 0 0 0 0 0 0 0 0 0 0 0 0 0 0 0 0 0 0 0 0 0 0 0 0 0 0
0 0 0 0 0 0 0 0 0 0 0 0 0 0 0 0 0 0 0 0 0 0 0 0 0 0 0 0 0 0 0 0 0 0 0 0 0 0 0 0 0 0 0
0 0 0 0 0 0 0 0 0 0 0 0 0 0 0 0 0 0 0 0 0 0 0 0 0 0 0 0 0 0 0 0 0 0 0 0 0 0 0 0 0 0 0
0 0 0 0 0 0 0 0 1 1 1 0 0 0 0 0 0 0 0 0 0 0 0 0 0 0 0 0 0 0 0 0 0 0 0 0 0 0 0 0 0 0 0
1 1 0 0 0 0 1 3 5 7 6 3 1 0 0 0 0 0 0 0 0 0 0 0 0 0 0 0 0 0 0 0 0 0 0 0 0 0 0 0 0 0 0
5 3 1 0 0 1 3 6 11 13 11 6 1 0 0 0 0 0 0 0 0 0 0 0 0 0 0 0 0 0 0 0 0 0 0 0 0 0 0 0 0 0 0
8 5 1 0 0 0 2 6 9 11 9 4 1 0 0 0 0 0 0 0 0 0 0 0 0 0 0 0 0 0 0 0 0 0 0 0 0 0 0 0 0 0 0
5 3 1 0 0 0 1 2 3 4 3 1 0 0 0 0 0 0 0 0 0 0 0 0 0 0 0 0 0 0 0 0 0 0 0 0 0 0 0 0 0 0 0
1 1 0 0 0 0 0 0 0 0 0 0 0 0 0 0 0 0 0 0 0 0 0 0 0 0 0 0 0 0 0 0 0 0 0 0 0 0 0 0 0 0 0
0 0 0 0 0 0 0 0 0 0 0 0 0 0 0 0 0 0 0 0 0 0 0 0 0 0 0 0 0 0 0 0 0 0 0 0 0 0 0 0 0 0 0
0 0 0 0 0 0 0 0 0 0 0 0 0 0 0 0 0 0 0 0 0 0 0 0 0 0 0 0 0 0 0 0 0 0 0 0 0 0 0 0 0 0 0
0 0 0 0 0 0 0 0 0 0 0 0 0 0 0 0 0 0 0 0 0 0 0 0 0 0 0 0 0 0 0 0 0 0 0 0 0 0 0 0 0 0 0
0 0 0 0 0 0 0 0 0 0 0 0 0 0 0 0 0 0 0 0 0 0 0 0 0 0 0 0 0 0 0 0 0 0 0 0 0 0 0 0 0 0 0
0 0 0 0 0 0 0 0 0 0 0 0 0 0 0 0 0 0 0 0 0 0 0 0 0 0 0 0 0 0 0 0 0 0 0 0 0 0 0 0 0 0 0
0 0 0 0 0 0 0 0 0 0 0 0 0 0 0 0 0 0 0 0 0 0 0 0 0 0 0 0 0 0 0 0 0 0 0 0 0 0 0 0 0 0 0
0 0 0 0 0 0 0 0 0 0 0 0 0 0 0 0 0 0 0 0 0 0 0 0 0 0 0 0 0 0 0 0 0 0 0 0 0 0 0 0 0 0 0
0 0 0 0 0 0 0 0 0 0 0 0 0 0 0 0 0 0 0 0 0 0 0 0 0 0 0 0 0 0 0 0 0 0 0 0 0 0 0 0 0 0 0
0 0 0 0 0 0 0 0 0 0 0 0 0 0 0 0 0 0 0 0 0 0 0 0 0 0 0 0 0 0 0 0 0 0 0 0 0 0 0 0 0 0 0
0 0 0 0 0 0 0 0 0 0 0 0 0 0 0 0 0 0 0 0 0 0 0 0 0 0 0 0 0 0 0 0 0 0 0 0 0 0 0 0 0 0 0
0 0 0 0 0 0 0 0 0 0 0 0 0 0 0 0 0 0 0 0 0 0 0 0 0 0 0 0 0 0 0 0 0 0 0 0 0 0 0 0 0 0 0
0 0 0 0 0 0 0 0 0 0 0 0 0 0 0 0 0 0 0 0 0 0 0 0 0 0 0 0 0 0 0 0 0 0 0 0 0 0 0 0 0 0 0
0 0 0 0 0 0 0 0 0 0 0 0 0 0 0 0 0 0 0 0 0 0 0 0 0 0 0 0 0 0 0 0 0 0 0 0 0 0 0 0 0 0 0
0 0 0 0 0 0 0 0 0 0 0 0 0 0 0 0 0 0 0 0 0 0 0 0 0 0 0 0 0 0 0 0 0 0 0 0 0 0 0 0 0 0 0
0 0 0 0 0 0 0 0 0 0 0 0 0 0 0 0 0 0 0 0 0 0 0 0 0 0 0 0 0 0 0 0 0 0 0 0 0 0 0 0 0 0 0
0 0 0 0 0 0 0 0 0 0 0 0 0 0 0 0 0 0 0 0 0 0 0 0 0 0 0 0 0 0 0 0 0 0 0 0 0 0 0 0 0 0 0
0 0 0 0 0 0 0 0 0 0 0 0 0 0 0 0 0 0 0 0 0 0 0 0 0 0 0 0 0 0 0 0 0 0 0 0 0 0 0 0 0 0 0

GEFSMA_con_probscp_024.txt.gz
Probability
3 3 5 6 4 3 3 3 3 3 3 3 1 1 1 3 3 3 2 4 5 5 4 3 3 3 3 3 3 3 3 2 2 3 3 1 0 0 0 0 0 0 0
11 10 10 9 7 5 4 4 3 3 3 3 2 2 3 4 5 4 4 4 5 5 4 3 3 3 3 3 3 4 4 4 4 4 3 2 1 0 0 0 0 0 0
29 27 23 19 15 11 9 5 3 3 3 4 4 6 9 12 12 10 8 7 7 6 6 5 5 4 4 3 4 5 7 7 6 5 4 2 1 0 0 0 0 0 0
51 50 45 36 30 27 18 10 7 7 7 8 10 13 18 25 26 22 15 12 10 8 9 11 10 8 6 6 8 10 13 12 9 6 4 3 1 0 0 0 0 0 0
72 71 66 57 50 46 37 26 24 22 19 15 14 18 22 27 32 28 20 15 13 10 9 14 16 12 8 12 18 21 21 20 14 8 6 4 3 1 0 0 0 0 0
84 82 77 70 64 61 55 46 40 35 25 17 12 12 14 16 19 20 16 12 9 6 6 10 17 18 16 18 23 25 23 23 19 12 7 6 5 2 0 0 0 0 0
80 79 75 69 64 63 58 48 40 29 18 11 7 5 5 4 6 9 8 6 4 2 2 6 18 31 33 25 19 17 16 17 20 14 8 7 7 4 1 0 0 0 0
69 67 63 56 51 49 44 36 28 17 8 5 4 3 1 1 2 3 4 5 5 5 4 6 21 42 49 42 26 13 8 12 16 14 8 7 6 5 2 0 0 0 0
56 52 45 39 35 31 26 22 16 9 5 3 3 3 3 3 2 1 3 6 9 8 5 7 19 36 50 55 43 18 6 9 11 10 8 7 6 5 2 1 1 0 0
41 35 27 22 21 19 14 10 7 4 3 3 4 5 8 9 6 3 3 5 7 6 6 8 15 25 37 48 43 21 5 5 5 6 7 7 6 4 3 3 2 1 0
27 21 15 13 13 11 8 5 4 3 4 4 6 7 9 10 9 6 4 4 4 2 6 12 15 19 23 28 26 15 4 1 1 2 3 3 4 3 3 3 2 1 1
21 14 9 8 9 7 5 4 4 4 5 6 7 7 6 7 7 5 4 3 3 2 6 12 15 16 16 15 12 7 2 1 0 1 1 1 1 1 1 1 1 1 0
19 11 5 5 6 4 3 4 5 6 6 6 6 6 5 4 3 3 1 1 1 2 3 7 11 14 12 11 7 3 1 1 0 0 0 0 0 0 0 0 0 0 0
15 9 4 3 2 1 2 4 5 6 6 6 5 4 3 2 1 1 0 0 0 1 1 3 7 9 9 8 5 3 3 1 0 0 0 0 0 0 0 0 0 0 0
7 5 2 1 0 0 1 3 4 5 5 4 3 1 1 1 0 0 0 0 0 0 0 1 2 4 5 4 2 3 4 1 0 0 0 0 0 0 0 0 0 0 0
1 1 1 0 0 0 0 1 1 2 2 1 1 0 0 0 0 0 0 0 0 0 0 0 0 1 2 2 2 4 5 3 1 0 0 0 0 0 0 0 0 0 0
0 0 0 0 0 0 0 0 0 0 0 0 0 0 0 0 0 0 0 0 0 0 0 0 0 0 1 1 2 4 5 4 3 1 0 0 0 0 0 0 0 0 0
0 0 0 0 0 0 0 0 0 0 0 0 0 0 0 0 0 0 0 0 0 0 0 0 0 0 0 1 1 2 2 2 2 1 0 0 0 0 0 0 0 0 0
0 0 0 0 0 0 0 0 0 0 0 0 0 0 0 0 0 0 0 0 0 0 0 0 0 1 0 0 0 0 0 0 0 0 0 0 0 0 0 0 0 0 0
0 0 0 0 0 0 0 0 0 0 0 0 0 0 0 0 0 0 0 0 0 0 0 0 0 0 0 0 0 0 0 1 1 0 0 0 0 0 0 0 0 0 0
0 0 0 0 0 0 0 0 0 0 0 0 0 0 0 0 0 0 0 0 0 0 0 0 0 0 0 0 0 0 1 2 2 0 0 0 0 0 0 0 0 0 0
0 0 0 0 0 0 0 0 0 0 0 0 0 0 0 0 0 0 0 0 0 0 0 0 0 0 0 0 0 0 0 1 1 0 0 0 0 0 0 0 0 0 0
0 0 0 0 0 0 0 0 0 0 0 0 0 0 0 0 0 0 0 0 0 0 0 0 0 0 0 0 0 0 0 0 0 0 0 0 0 0 0 0 0 0 0
0 0 0 0 0 0 0 0 0 0 0 0 0 0 0 0 0 0 0 0 0 0 0 0 0 0 0 0 0 0 0 0 0 0 0 0 0 0 0 0 0 0 0
0 0 0 0 0 0 0 0 0 0 0 0 0 0 0 0 0 0 0 0 0 0 0 0 0 0 0 0 0 0 0 0 0 0 0 0 0 0 0 0 0 0 0
0 0 0 0 0 0 0 0 0 0 0 0 0 0 0 0 0 0 0 0 0 0 0 0 0 0 0 0 0 0 0 0 0 0 0 0 0 0 0 0 0 0 0

GEFSMA_con_probscp_030.txt.gz
Probability
80 77 83 90 82 72 75 76 68 62 55 39 20 13 18 24 27 34 54 83 98 97 93 89 80 64 43 25 12 4 1 0 0 0 0 0 0 0 0 0 0 0 0
92 91 93 94 86 77 78 79 74 67 60 47 32 23 28 37 46 55 71 89 99 99 97 93 87 78 64 45 27 14 7 3 1 1 0 0 0 0 0 0 0 0 0
100 100 100 97 92 87 87 87 83 77 70 60 46 34 35 47 61 74 85 94 98 98 98 96 92 88 82 69 51 37 28 18 9 4 2 0 0 0 0 0 0 0 0
100 100 99 96 94 93 94 92 90 86 80 71 55 40 36 43 54 65 77 87 92 94 96 96 94 91 87 80 70 63 58 44 26 13 6 2 1 0 0 0 0 0 0
100 100 98 96 94 94 94 94 93 91 87 78 60 40 33 35 38 41 52 65 75 85 90 92 94 94 91 86 82 82 80 70 50 28 14 7 3 1 0 0 0 0 0
100 99 98 96 96 96 96 95 94 92 89 79 61 41 29 25 23 27 37 46 54 63 71 79 88 94 93 88 85 87 89 86 70 46 26 14 8 4 1 0 0 0 0
100 99 97 97 97 97 97 97 95 91 84 75 63 45 26 16 15 26 42 50 47 46 49 58 74 88 91 83 75 75 83 86 76 56 36 23 16 10 4 0 0 0 0
99 99 98 97 97 97 97 96 92 85 76 69 60 44 23 13 13 23 45 60 60 55 46 43 57 74 83 78 61 53 60 71 71 60 45 32 23 15 7 2 0 0 0
100 99 98 97 96 95 94 90 85 78 70 61 51 36 21 13 10 15 33 54 63 63 53 40 39 52 64 67 53 34 33 44 53 55 50 40 28 17 10 4 1 0 0
99 99 97 95 93 91 87 81 75 71 63 50 37 25 18 13 8 7 16 31 41 46 45 33 25 29 38 43 37 23 15 18 26 36 40 39 31 20 12 8 5 3 3
98 97 95 93 91 88 82 75 68 61 50 35 23 16 13 10 6 4 5 10 14 19 23 20 15 14 16 18 16 11 6 5 7 13 19 24 25 21 16 13 12 11 9
95 94 92 91 90 85 79 71 60 47 34 22 15 11 10 7 5 4 2 1 2 4 7 10 9 6 5 5 4 2 1 1 1 2 5 9 12 14 14 13 15 15 13
92 91 89 88 84 77 70 62 49 35 24 17 13 10 8 5 4 3 1 0 0 0 1 3 4 2 1 2 1 0 0 0 0 0 1 2 3 5 7 7 9 10 10
84 84 82 77 71 62 54 46 38 29 23 19 15 11 7 4 2 1 0 0 0 0 0 1 1 0 0 0 0 0 0 0 0 0 0 0 0 1 2 2 2 3 4
69 69 68 63 56 47 39 33 30 27 25 22 18 12 6 2 1 0 0 0 0 0 0 0 0 0 0 0 0 0 0 0 0 0 0 0 0 0 0 0 0 0 1
49 49 47 44 39 32 26 22 22 23 22 19 15 10 4 1 0 0 0 0 0 0 0 0 0 0 0 0 0 0 0 0 0 0 0 0 0 0 0 0 0 0 0
29 29 28 25 20 16 13 13 14 13 11 10 6 4 2 0 0 0 0 0 0 0 0 0 0 0 0 0 0 0 0 0 0 0 0 0 0 0 0 0 0 0 0
15 15 14 11 7 5 5 5 5 4 3 2 1 1 0 0 0 0 0 0 0 0 0 0 0 0 0 0 0 0 0 0 0 0 0 0 0 0 0 0 0 0 0
6 6 6 5 2 1 1 1 1 0 0 0 0 0 0 0 0 0 0 0 0 0 0 0 0 0 0 0 0 0 0 0 0 0 0 0 0 0 0 0 0 0 0
1 1 1 1 0 0 0 0 0 0 0 0 0 0 0 0 0 0 0 0 0 0 0 0 0 0 0 0 0 0 0 0 0 0 0 0 0 0 0 0 0 0 0
0 0 0 0 0 0 0 0 0 0 0 0 0 0 0 0 0 0 0 0 0 0 0 0 0 0 0 0 0 0 0 0 0 0 0 0 0 0 0 0 0 0 0
0 0 0 0 0 0 0 0 0 0 0 0 0 0 0 0 0 0 0 0 0 0 0 0 0 0 0 0 0 0 0 0 0 0 0 0 0 0 0 0 0 0 0
0 0 0 0 0 0 0 0 0 0 0 0 0 0 0 0 0 0 0 0 0 0 0 0 0 0 0 0 0 0 0 0 0 0 0 0 0 0 0 0 0 0 0
0 0 0 0 0 0 0 0 0 0 0 0 0 0 0 0 0 0 0 0 0 0 0 0 0 0 0 0 0 0 0 0 0 0 0 0 0 0 0 0 0 0 0
0 0 0 0 0 0 0 0 0 0 0 0 0 0 0 0 0 0 0 0 0 0 0 0 0 0 0 0 0 0 0 0 0 0 0 0 0 0 0 0 0 0 0
0 0 0 0 0 0 0 0 0 0 0 0 0 0 0 0 0 0 0 0 0 0 0 0 0 0 0 0 0 0 0 0 0 0 0 0 0 0 0 0 0 0 0

GEFSMA_con_probscp_036.txt.gz
Probability
10 8 8 11 18 30 41 45 37 23 12 7 4 1 2 4 6 5 5 13 33 55 72 83 89 84 68 46 25 12 6 4 3 1 0 0 0 0 0 0 0 0 0
34 31 28 30 37 47 54 55 45 29 17 11 6 3 4 6 7 6 5 11 28 49 68 83 89 86 74 56 35 20 11 6 3 2 1 0 0 0 0 0 0 0 0
68 66 61 61 65 70 72 66 51 36 26 19 12 7 7 7 6 5 5 9 20 38 59 77 86 87 81 67 47 30 19 11 6 3 1 0 0 0 0 0 0 0 0
87 87 84 82 83 85 82 70 54 41 32 24 16 10 8 6 4 3 4 8 14 24 40 60 75 81 79 68 51 37 27 21 15 9 3 0 0 0 0 0 0 0 0
90 91 91 90 90 87 80 67 54 43 34 25 17 12 8 5 3 2 3 5 7 11 20 36 54 64 66 62 52 43 35 27 24 18 10 4 2 1 0 0 0 0 0
86 89 90 90 89 83 73 62 51 40 31 24 18 12 7 5 3 1 1 1 2 4 9 19 32 42 47 49 47 43 35 27 26 27 23 16 10 5 1 0 0 0 0
83 85 87 88 88 80 68 58 47 36 28 23 18 11 6 3 2 1 0 0 1 1 4 10 18 25 28 29 29 28 24 21 22 27 31 30 22 12 4 0 0 0 0
83 84 85 87 86 78 67 57 47 36 26 21 15 9 3 1 1 1 0 0 0 0 1 3 8 12 13 11 10 10 12 13 15 18 26 32 27 16 6 2 1 0 0
80 81 81 81 80 74 65 56 47 36 26 19 14 8 3 1 0 0 0 0 0 0 0 0 2 3 3 3 2 2 4 6 7 8 13 20 20 13 7 3 1 0 0
68 70 71 69 68 66 59 50 42 34 25 20 14 8 4 1 0 0 0 0 0 0 0 0 0 0 0 0 0 0 1 2 2 2 4 7 9 8 6 3 1 0 0
47 52 56 56 55 54 50 41 33 29 24 20 13 8 4 2 1 0 0 0 0 0 0 0 0 0 0 0 0 0 0 0 0 0 1 1 3 4 5 3 1 0 1
29 36 42 44 43 42 39 33 28 25 23 18 13 8 3 1 1 0 0 0 0 0 0 0 0 0 0 0 0 0 0 0 0 0 0 0 1 2 2 3 2 1 2
18 23 29 31 29 28 27 26 24 23 19 14 10 7 3 1 0 0 0 0 0 0 0 0 0 0 0 0 0 0 0 0 0 0 0 0 0 0 1 2 2 2 3
10 14 19 20 19 18 18 19 20 20 16 10 7 5 2 1 0 0 0 0 0 0 0 0 0 0 0 0 0 0 0 0 0 0 0 0 0 0 0 1 1 1 2
4 6 11 13 12 11 11 13 15 14 11 7 4 2 1 0 0 0 0 0 0 0 0 0 0 0 0 0 0 0 0 0 0 0 0 0 0 0 0 0 0 0 1
1 2 5 8 8 6 6 8 8 7 6 4 2 1 0 0 0 0 0 0 0 0 0 0 0 0 0 0 0 0 0 0 0 0 0 0 0 0 0 0 0 0 0
0 0 2 5 5 4 3 3 3 2 2 2 1 0 0 0 0 0 0 0 0 0 0 0 0 0 0 0 0 0 0 0 0 0 0 0 0 0 0 0 0 0 0
0 0 1 3 4 3 2 1 1 0 0 0 0 0 0 0 0 0 0 0 0 0 0 0 0 0 0 0 0 0 0 0 0 0 0 0 0 0 0 0 0 0 0
0 0 1 2 2 1 1 0 0 0 0 0 0 0 0 0 0 0 0 0 0 0 0 0 0 0 0 0 0 0 0 0 0 0 0 0 0 0 0 0 0 0 0
0 0 0 1 1 0 0 0 0 0 0 0 0 0 0 0 0 0 0 0 0 0 0 0 0 0 0 0 0 0 0 0 0 0 0 0 0 0 0 0 0 0 0
0 0 0 0 0 0 0 0 0 0 0 0 0 0 0 0 0 0 0 0 0 0 0 0 0 0 0 0 0 0 0 0 0 0 0 0 0 0 0 0 0 0 0
0 0 0 0 0 0 0 0 0 0 0 0 0 0 0 0 0 0 0 0 0 0 0 0 0 0 0 0 0 0 0 0 0 0 0 0 0 0 0 0 0 0 0
0 0 0 0 0 0 0 0 0 0 0 0 0 0 0 0 0 0 0 0 0 0 0 0 0 0 0 0 0 0 0 0 0 0 0 0 0 0 0 0 0 0 0
0 0 0 0 0 0 0 0 0 0 0 0 0 0 0 0 0 0 0 0 0 0 0 0 0 0 0 0 0 0 0 0 0 0 0 0 0 0 0 0 0 0 0
0 0 0 0 0 0 0 0 0 0 0 0 0 0 0 0 0 0 0 0 0 0 0 0 0 0 0 0 0 0 0 0 0 0 0 0 0 0 0 0 0 0 0
0 0 0 0 0 0 0 0 0 0 0 0 0 0 0 0 0 0 0 0 0 0 0 0 0 0 0 0 0 0 0 0 0 0 0 0 0 0 0 0 0 0 0